Regional Weather Roundup
Issued by NWS

Home | Current Version | Previous Version | Text Only | Print | Product List | Glossary On
Versions: 1 2 3 4 5 6 7 8 9 10 11 12 13 14 15 16 17 18 19 20 21 22 23 24 25 26 27 28 29 30 31 32 33 34 35 36 37 38 39 40 41 42 43 44 45 46 47 48 49 50
000
ASUS45 KPSR 211500
RWRAZ

PRELIMINARY ARIZONA REGIONAL HOURLY WEATHER ROUNDUP
NATIONAL WEATHER SERVICE PHOENIX AZ
800 AM MST THU AUG 21 2014

NOTE: FAIR INDICATES FEW OR NO CLOUDS BELOW 12,000 FEET WITH NO
SIGNIFICANT WEATHER AND/OR OBSTRUCTIONS TO VISIBILITY.

AZZ001>003-036-211600-
NORTHWEST ARIZONA

CITY           SKY/WX    TMP DP  RH WIND       PRES   REMARKS
KINGMAN        MOSUNNY   73  53  49 S3        30.06R
$$

AZZ004>008-015-016-018-211600-
NORTH CENTRAL ARIZONA

CITY           SKY/WX    TMP DP  RH WIND       PRES   REMARKS
GRAND CANYON   PTSUNNY   57  52  83 N3        30.27R
WILLIAMS       CLOUDY    55  48  76 S5        30.34R
PRESCOTT       PTSUNNY   63  50  62 S5        30.17S
FLAGSTAFF      PTSUNNY   55  48  77 CALM      30.30R
PAYSON         MOSUNNY   68  55  64 CALM      30.20R
PAGE           MOSUNNY   74  48  39 CALM      30.12S
$$

AZZ009>014-017-211600-
NORTHEAST ARIZONA

CITY           SKY/WX    TMP DP  RH WIND       PRES   REMARKS
WINSLOW        NOT AVBL
SAINT JOHNS    MOSUNNY   68  51  54 E3        30.22R
$$

AZZ023-211600-
GREATER PHOENIX AREA

CITY           SKY/WX    TMP DP  RH WIND       PRES   REMARKS
PHOENIX        CLOUDY    84  61  45 E6        29.91R
GLENDALE       PTSUNNY   82  63  51 NW5       29.94R
DEER VALLEY    CLOUDY    81  64  56 E3        29.94R
SCOTTSDALE     CLOUDY    82  62  50 CALM      29.96R
MESA-FALCON    CLOUDY    82  59  44 CALM      29.94R
MESA-GATEWAY   PTSUNNY   81  61  50 E6        29.96R
CHANDLER       PTSUNNY   81  64  57 NE3       29.94R
$$

AZZ027-028-211600-
SOUTHWEST MARICOPA COUNTY AND PINAL COUNTY

CITY           SKY/WX    TMP DP  RH WIND       PRES   REMARKS
CASA GRANDE    CLOUDY    81  59  47 CALM      29.96R
$$

AZZ503-504-507>509-211600-
SOUTHEAST ARIZONA

CITY           SKY/WX    TMP DP  RH WIND       PRES   REMARKS
TUCSON         CLOUDY    77  64  64 SE8       30.04R
RYAN FIELD       N/A     77  66  69 CALM      30.03R
NOGALES        CLOUDY    70  64  81 E3        30.11R
SAFFORD        PTSUNNY   70  59  68 CALM      30.05R
$$

AZZ020-021-025-026-031-211600-
SOUTHWEST ARIZONA

CITY           SKY/WX    TMP DP  RH WIND       PRES   REMARKS
YUMA           NOT AVBL
$$

CAZ031-033-041-043-047-048-061-211600-
SOUTHERN CALIFORNIA

CITY           SKY/WX    TMP DP  RH WIND       PRES   REMARKS
DOWNTOWN L.A.  SUNNY     69  60  73 W3        29.94R
L.A. AIRPORT   PTSUNNY   68  61  78 SW5       29.95R
SAN DIEGO      PTSUNNY   72  63  73 NW8       29.95R
BURBANK        SUNNY     67  59  75 SE3       29.95R
ONTARIO        MOSUNNY   68  60  75 SW5       29.95R
RIVERSIDE      SUNNY     67  62  84 CALM      29.96R
PALM SPRINGS   MOSUNNY   81  57  43 W3        29.87R
EL CENTRO NAS  MOSUNNY   84  54  35 CALM      29.83R
IMPERIAL       SUNNY     81  62  52 NW3       29.83R
BLYTHE         SUNNY     83  68  60 E6        29.86R
$$

NVZ020-UTZ003-211600-
SOUTHERN NEVADA-UTAH

CITY           SKY/WX    TMP DP  RH WIND       PRES   REMARKS
LAS VEGAS      NOT AVBL
SALT LAKE CITY CLOUDY    70  48  45 S6        30.07R
$$

NMZ009-TXZ055-211600-
NEW MEXICO-WEST TEXAS

CITY           SKY/WX    TMP DP  RH WIND       PRES   REMARKS
ALBUQUERQUE    MOSUNNY   72  41  32 N6        30.18R
EL PASO        MOSUNNY   77  52  41 S6        30.08R
$$


........................KEY........................
SKY/WX - SKY CONDITION/WEATHER
TMP    - TEMPERATURE IN FAHRENHEIT
DP     - DEW POINT IN FAHRENHEIT
RH     - RELATIVE HUMIDITY IN PERCENT
WIND   - DIRECTION AND SPEED IN MILES PER HOUR (MPH)
VRB    - VARIABLE WIND DIRECTION
PRES   - MEAN SEA LEVEL PRESSURE IN INCHES OF MERCURY
         F - FALLING PRESSURE   R - RISING PRESSURE
         S - STEADY PRESSURE
VSB    - VISIBILITY IN MILES
HX     - HEAT INDEX IN FAHRENHEIT
WCI    - WIND CHILL INDEX IN FAHRENHEIT
TC     - TEMPERATURE IN CELSIUS WHICH IS ALSO KNOWN AS
         TEMPERATURE IN CENTIGRADE
AFB    - AIR FORCE BASE
         LUKE AFB IS LUKE AIR FORCE BASE
         DAVIS-MONTHAN IS DAVIS-MONTHAN AIR FORCE BASE
NAS    - NAVAL AIR STATION
         EL CENTRO NAS IS EL CENTRO NAVAL AIR STATION
N/A    - NOT AVAILABLE



USA.gov is the U.S. government's official web portal to all federal, state and local government web resources and services.